User: anonymous   Login
Location: Corte Bragagnani
(45.3000°N, 11.1000°E)
Time: 01:41:30
(UTC+00:00)
Language:

Cosmos 1140 Rocket - Orbit

View from above orbital plane
View from above orbital plane
View from above satellite
View from above satellite

Ground track
Ground track

The orbit data is extracted from the following two-line orbital elements,

1 11574U 79089B   20192.76525665  .00000044  00000-0  22069-4 0  9998
2 11574  74.0711 312.3040 0016911 291.0642  68.8705 14.40760034138370
Epoch (UTC): 10 July 2020 18:21:58
Eccentricity: 0.0016911
inclination: 74.0711°
perigee height: 744 km
apogee height: 768 km
right ascension of ascending node: 312.3040°
argument of perigee: 291.0642°
revolutions per day: 14.40760034
mean anomaly at epoch: 68.8705°
orbit number at epoch: 13837

The dashed part of the orbit path shows where the satellite is in the earth's shadow,  

DLR